This demonstration page uses our WeatherBlox Daily Observations layout. Learn more.

Left ArrowRight Arrow

Hourly Observations for April 13, 2022

Temp ( °F °C ) Dew Point ( °F °C ) Humidity (%) Winds ( mph kmh ) Pressure ( in mb ) Visibility ( mi km ) Precip ( " mm )
12:53 am 00:53 Clear 46 7.8 26 -3.3 46 46 SSW 5 7 30.13 1020 10 16 0.00 0.00
1:53 am 01:53 Clear 46 7.8 26 -3.3 46 46 SW 5 7 30.13 1020 10 16 0.00 0.00
2:53 am 02:53 Mostly Cloudy 40 4.4 28 -2.2 63 63 E 3 6 30.12 1020 10 16 0.00 0.00
3:53 am 03:53 Cloudy 45 7.2 27 -2.8 49 49 SSE 9 15 30.12 1020 10 16 0.00 0.00
4:53 am 04:53 Mostly Cloudy 44 6.7 27 -2.8 51 51 S 10 17 30.13 1020 10 16 0.00 0.00
5:53 am 05:53 Cloudy 43 6.1 27 -2.8 53 53 SSE 7 11 30.12 1020 10 16 0.00 0.00
6:53 am 06:53 Cloudy 45 7.2 26 -3.3 48 48 SSW 5 7 30.14 1021 10 16 0.00 0.00
7:53 am 07:53 Cloudy 45 7.2 28 -2.2 52 52 S 9 15 30.16 1022 10 16 0.00 0.00
8:53 am 08:53 Cloudy 48 8.9 29 -1.7 48 48 S 10 17 30.17 1022 10 16 0.00 0.00
9:53 am 09:53 Cloudy 50 10 27 -2.8 41 41 S 20 31 30.16 1021 10 16 0.00 0.00
10:53 am 10:53 Cloudy 53 11.7 30 -1.1 41 41 S 18 30 30.15 1021 10 16 0.00 0.00
11:53 am 11:53 Cloudy 56 13.3 29 -1.7 36 36 S 18 30 30.14 1021 10 16 0.00 0.00
12:53 pm 12:53 Cloudy 57 13.9 30 -1.1 36 36 S 14 22 30.11 1020 10 16 0.00 0.00
1:53 pm 13:53 Cloudy 59 15 31 -0.6 35 35 S 12 19 30.09 1019 10 16 0.00 0.00
2:53 pm 14:53 Cloudy 58 14.4 31 -0.6 36 36 SSE 18 30 30.06 1018 10 16 0.00 0.00
3:53 pm 15:53 Cloudy 59 15 31 -0.6 35 35 S 15 24 30.04 1017 10 16 0.00 0.00
4:53 pm 16:53 Cloudy 57 13.9 36 2.2 45 45 SSW 7 11 30.02 1017 10 16 0.00 0.00
5:53 pm 17:53 Cloudy 58 14.4 33 0.6 39 39 SSE 13 20 30.00 1016 10 16 0.00 0.00
6:53 pm 18:53 Cloudy 57 13.9 35 1.7 44 44 NW 8 13 30.00 1016 10 16 0.00 0.00
7:53 pm 19:53 Cloudy 51 10.6 43 6.1 74 74 NNW 7 11 29.99 1016 10 16 0.00 0.00
8:53 pm 20:53 Cloudy 50 10 43 6.1 77 77 VRB 3 6 30.00 1016 10 16 0.01 0.25
9:53 pm 21:53 Cloudy 52 11.1 41 5 66 66 SW 3 6 30.01 1016 10 16 0.00 0.00
10:53 pm 22:53 Cloudy with Light Rain 53 11.7 37 2.8 55 55 SSW 17 28 30.01 1016 10 16 0.00 0.00
11:53 pm 23:53 Cloudy with Light Rain 50 10 42 5.6 74 74 S 14 22 30.02 1017 10 16 0.02 0.51

Powered by AerisWeather